Year,Month,Day,Hour,Minute,Value (Times are PST for temperature in C)
2022,07,29,00,00,24.20
2022,07,29,00,01,24.20
2022,07,29,00,02,24.10
2022,07,29,00,03,24.10
2022,07,29,00,04,24.10
2022,07,29,00,05,24.10
2022,07,29,00,06,24.10
2022,07,29,00,07,24.10
2022,07,29,00,08,24.10
2022,07,29,00,09,24.10
2022,07,29,00,10,24.10
2022,07,29,00,11,24.00
2022,07,29,00,12,24.00
2022,07,29,00,13,24.00
2022,07,29,00,14,24.00
2022,07,29,00,15,24.00
2022,07,29,00,16,24.00
2022,07,29,00,17,24.00
2022,07,29,00,18,23.90
2022,07,29,00,19,23.90
2022,07,29,00,20,23.90
2022,07,29,00,21,23.90
2022,07,29,00,22,23.90
2022,07,29,00,23,23.80
2022,07,29,00,24,23.80
2022,07,29,00,25,23.80
2022,07,29,00,26,23.80
2022,07,29,00,27,23.70
2022,07,29,00,28,23.70
2022,07,29,00,29,23.70
2022,07,29,00,30,23.60
2022,07,29,00,31,23.60
2022,07,29,00,32,23.60
2022,07,29,00,33,23.50
2022,07,29,00,34,23.50
2022,07,29,00,35,23.40
2022,07,29,00,36,23.40
2022,07,29,00,37,23.30
2022,07,29,00,38,23.30
2022,07,29,00,39,23.30
2022,07,29,00,40,23.20
2022,07,29,00,41,23.20
2022,07,29,00,42,23.20
2022,07,29,00,43,23.20
2022,07,29,00,44,23.10
2022,07,29,00,45,23.10
2022,07,29,00,46,23.10
2022,07,29,00,47,23.10
2022,07,29,00,48,23.00
2022,07,29,00,49,23.00
2022,07,29,00,50,23.00
2022,07,29,00,51,23.00
2022,07,29,00,52,23.00
2022,07,29,00,53,23.00
2022,07,29,00,54,23.00
2022,07,29,00,55,23.00
2022,07,29,00,56,23.00
2022,07,29,00,57,23.00
2022,07,29,00,58,23.00
2022,07,29,00,59,23.00
2022,07,29,01,00,23.00
2022,07,29,01,01,23.00
2022,07,29,01,02,23.00
2022,07,29,01,03,23.00
2022,07,29,01,04,23.00
2022,07,29,01,05,23.00
2022,07,29,01,06,22.90
2022,07,29,01,07,22.90
2022,07,29,01,08,22.90
2022,07,29,01,09,22.90
2022,07,29,01,10,22.90
2022,07,29,01,11,22.90
2022,07,29,01,12,22.90
2022,07,29,01,13,22.80
2022,07,29,01,14,22.80
2022,07,29,01,15,22.80
2022,07,29,01,16,22.80
2022,07,29,01,17,22.80
2022,07,29,01,18,22.80
2022,07,29,01,19,22.80
2022,07,29,01,20,22.80
2022,07,29,01,21,22.80
2022,07,29,01,22,22.70
2022,07,29,01,23,22.70
2022,07,29,01,24,22.70
2022,07,29,01,25,22.70
2022,07,29,01,26,22.70
2022,07,29,01,27,22.70
2022,07,29,01,28,22.70
2022,07,29,01,29,22.60
2022,07,29,01,30,22.60
2022,07,29,01,31,22.60
2022,07,29,01,32,22.60
2022,07,29,01,33,22.60
2022,07,29,01,34,22.60
2022,07,29,01,35,22.60
2022,07,29,01,36,22.50
2022,07,29,01,37,22.50
2022,07,29,01,38,22.50
2022,07,29,01,39,22.40
2022,07,29,01,40,22.40
2022,07,29,01,41,22.40
2022,07,29,01,42,22.40
2022,07,29,01,43,22.30
2022,07,29,01,44,22.30
2022,07,29,01,45,22.30
2022,07,29,01,46,22.30
2022,07,29,01,47,22.30
2022,07,29,01,48,22.20
2022,07,29,01,49,22.20
2022,07,29,01,50,22.20
2022,07,29,01,51,22.20
2022,07,29,01,52,22.20
2022,07,29,01,53,22.10
2022,07,29,01,54,22.10
2022,07,29,01,55,22.10
2022,07,29,01,56,22.10
2022,07,29,01,57,22.00
2022,07,29,01,58,22.00
2022,07,29,01,59,22.00
2022,07,29,02,00,22.00
2022,07,29,02,01,22.00
2022,07,29,02,02,21.90
2022,07,29,02,03,21.90
2022,07,29,02,04,21.90
2022,07,29,02,05,21.90
2022,07,29,02,06,21.90
2022,07,29,02,07,21.90
2022,07,29,02,08,21.80
2022,07,29,02,09,21.80
2022,07,29,02,10,21.80
2022,07,29,02,11,21.80
2022,07,29,02,12,21.80
2022,07,29,02,13,21.80
2022,07,29,02,14,21.80
2022,07,29,02,15,21.80
2022,07,29,02,16,21.70
2022,07,29,02,17,21.70
2022,07,29,02,18,21.70
2022,07,29,02,19,21.70
2022,07,29,02,20,21.70
2022,07,29,02,21,21.70
2022,07,29,02,22,21.70
2022,07,29,02,23,21.70
2022,07,29,02,24,21.70
2022,07,29,02,25,21.60
2022,07,29,02,26,21.60
2022,07,29,02,27,21.60
2022,07,29,02,28,21.60
2022,07,29,02,29,21.60
2022,07,29,02,30,21.60
2022,07,29,02,31,21.60
2022,07,29,02,32,21.50
2022,07,29,02,33,21.50
2022,07,29,02,34,21.50
2022,07,29,02,35,21.50
2022,07,29,02,36,21.50
2022,07,29,02,37,21.50
2022,07,29,02,38,21.50
2022,07,29,02,39,21.40
2022,07,29,02,40,21.40
2022,07,29,02,41,21.40
2022,07,29,02,42,21.40
2022,07,29,02,43,21.40
2022,07,29,02,44,21.40
2022,07,29,02,45,21.30
2022,07,29,02,46,21.30
2022,07,29,02,47,21.30
2022,07,29,02,48,21.30
2022,07,29,02,49,21.30
2022,07,29,02,50,21.30
2022,07,29,02,51,21.30
2022,07,29,02,52,21.20
2022,07,29,02,53,21.20
2022,07,29,02,54,21.20
2022,07,29,02,55,21.20
2022,07,29,02,56,21.20
2022,07,29,02,57,21.20
2022,07,29,02,58,21.10
2022,07,29,02,59,21.10
2022,07,29,03,00,21.10
2022,07,29,03,01,21.10
2022,07,29,03,02,21.10
2022,07,29,03,03,21.00
2022,07,29,03,04,21.00
2022,07,29,03,05,21.00
2022,07,29,03,06,20.90
2022,07,29,03,07,20.90
2022,07,29,03,08,20.90
2022,07,29,03,09,20.90
2022,07,29,03,10,20.90
2022,07,29,03,11,20.90
2022,07,29,03,12,20.90
2022,07,29,03,13,20.90
2022,07,29,03,14,20.90
2022,07,29,03,15,20.90
2022,07,29,03,16,20.90
2022,07,29,03,17,20.90
2022,07,29,03,18,20.90
2022,07,29,03,19,20.90
2022,07,29,03,20,20.90
2022,07,29,03,21,20.90
2022,07,29,03,22,20.90
2022,07,29,03,23,20.90
2022,07,29,03,24,20.90
2022,07,29,03,25,20.90
2022,07,29,03,26,20.90
2022,07,29,03,27,20.90
2022,07,29,03,28,20.90
2022,07,29,03,29,20.90
2022,07,29,03,30,20.90
2022,07,29,03,31,20.80
2022,07,29,03,32,20.80
2022,07,29,03,33,20.80
2022,07,29,03,34,20.80
2022,07,29,03,35,20.80
2022,07,29,03,36,20.70
2022,07,29,03,37,20.70
2022,07,29,03,38,20.70
2022,07,29,03,39,20.70
2022,07,29,03,40,20.60
2022,07,29,03,41,20.60
2022,07,29,03,42,20.60
2022,07,29,03,43,20.60
2022,07,29,03,44,20.60
2022,07,29,03,45,20.60
2022,07,29,03,46,20.60
2022,07,29,03,47,20.60
2022,07,29,03,48,20.50
2022,07,29,03,49,20.50
2022,07,29,03,50,20.50
2022,07,29,03,51,20.50
2022,07,29,03,52,20.40
2022,07,29,03,53,20.40
2022,07,29,03,54,20.40
2022,07,29,03,55,20.40
2022,07,29,03,56,20.40
2022,07,29,03,57,20.40
2022,07,29,03,58,20.40
2022,07,29,03,59,20.40
2022,07,29,04,00,20.40
2022,07,29,04,01,20.30
2022,07,29,04,02,20.30
2022,07,29,04,03,20.30
2022,07,29,04,04,20.30
2022,07,29,04,05,20.30
2022,07,29,04,06,20.30
2022,07,29,04,07,20.30
2022,07,29,04,08,20.30
2022,07,29,04,09,20.30
2022,07,29,04,10,20.30
2022,07,29,04,11,20.30
2022,07,29,04,12,20.30
2022,07,29,04,13,20.20
2022,07,29,04,14,20.20
2022,07,29,04,15,20.20
2022,07,29,04,16,20.20
2022,07,29,04,17,20.20
2022,07,29,04,18,20.20
2022,07,29,04,19,20.10
2022,07,29,04,20,20.10
2022,07,29,04,21,20.10
2022,07,29,04,22,20.10
2022,07,29,04,23,20.10
2022,07,29,04,24,20.10
2022,07,29,04,25,20.10
2022,07,29,04,26,20.10
2022,07,29,04,27,20.00
2022,07,29,04,28,20.00
2022,07,29,04,29,20.00
2022,07,29,04,30,20.00
2022,07,29,04,31,20.00
2022,07,29,04,32,20.00
2022,07,29,04,33,20.00
2022,07,29,04,34,19.90
2022,07,29,04,35,19.90
2022,07,29,04,36,19.90
2022,07,29,04,37,19.90
2022,07,29,04,38,19.90
2022,07,29,04,39,19.90
2022,07,29,04,40,19.90
2022,07,29,04,41,19.80
2022,07,29,04,42,19.80
2022,07,29,04,43,19.80
2022,07,29,04,44,19.80
2022,07,29,04,45,19.80
2022,07,29,04,46,19.80
2022,07,29,04,47,19.70
2022,07,29,04,48,19.70
2022,07,29,04,49,19.70
2022,07,29,04,50,19.70
2022,07,29,04,51,19.70
2022,07,29,04,52,19.70
2022,07,29,04,53,19.70
2022,07,29,04,54,19.70
2022,07,29,04,55,19.60
2022,07,29,04,56,19.60
2022,07,29,04,57,19.60
2022,07,29,04,58,19.60
2022,07,29,04,59,19.60
2022,07,29,05,00,19.60
2022,07,29,05,01,19.60
2022,07,29,05,02,19.60
2022,07,29,05,03,19.60
2022,07,29,05,04,19.60
2022,07,29,05,05,19.50
2022,07,29,05,06,19.50
2022,07,29,05,07,19.50
2022,07,29,05,08,19.50
2022,07,29,05,09,19.50
2022,07,29,05,10,19.50
2022,07,29,05,11,19.50
2022,07,29,05,12,19.50
2022,07,29,05,13,19.50
2022,07,29,05,14,19.50
2022,07,29,05,15,19.50
2022,07,29,05,16,19.50
2022,07,29,05,17,19.50
2022,07,29,05,18,19.50
2022,07,29,05,19,19.50
2022,07,29,05,20,19.50
2022,07,29,05,21,19.50
2022,07,29,05,22,19.50
2022,07,29,05,23,19.50
2022,07,29,05,24,19.50
2022,07,29,05,25,19.50
2022,07,29,05,26,19.50
2022,07,29,05,27,19.50
2022,07,29,05,28,19.50
2022,07,29,05,29,19.50
2022,07,29,05,30,19.50
2022,07,29,05,31,19.40
2022,07,29,05,32,19.40
2022,07,29,05,33,19.40
2022,07,29,05,34,19.40
2022,07,29,05,35,19.40
2022,07,29,05,36,19.40
2022,07,29,05,37,19.40
2022,07,29,05,38,19.40
2022,07,29,05,39,19.40
2022,07,29,05,40,19.40
2022,07,29,05,41,19.30
2022,07,29,05,42,19.30
2022,07,29,05,43,19.30
2022,07,29,05,44,19.30
2022,07,29,05,45,19.30
2022,07,29,05,46,19.20
2022,07,29,05,47,19.20
2022,07,29,05,48,19.20
2022,07,29,05,49,19.20
2022,07,29,05,50,19.20
2022,07,29,05,51,19.20
2022,07,29,05,52,19.20
2022,07,29,05,53,19.20
2022,07,29,05,54,19.20
2022,07,29,05,55,19.20
2022,07,29,05,56,19.20
2022,07,29,05,57,19.20
2022,07,29,05,58,19.20
2022,07,29,05,59,19.20
2022,07,29,06,00,19.20
2022,07,29,06,01,19.20
2022,07,29,06,02,19.20
2022,07,29,06,03,19.20
2022,07,29,06,04,19.20
2022,07,29,06,05,19.20
2022,07,29,06,06,19.20
2022,07,29,06,07,19.20
2022,07,29,06,08,19.20
2022,07,29,06,09,19.20
2022,07,29,06,10,19.20
2022,07,29,06,11,19.20
2022,07,29,06,12,19.20
2022,07,29,06,13,19.20
2022,07,29,06,14,19.10
2022,07,29,06,15,19.10
2022,07,29,06,16,19.10
2022,07,29,06,17,19.10
2022,07,29,06,18,19.10
2022,07,29,06,19,19.10
2022,07,29,06,20,19.10
2022,07,29,06,21,19.10
2022,07,29,06,22,19.10
2022,07,29,06,23,19.10
2022,07,29,06,24,19.10
2022,07,29,06,25,19.10
2022,07,29,06,26,19.10
2022,07,29,06,27,19.10
2022,07,29,06,28,19.10
2022,07,29,06,29,19.10
2022,07,29,06,30,19.10
2022,07,29,06,31,19.20
2022,07,29,06,32,19.20
2022,07,29,06,33,19.20
2022,07,29,06,34,19.20
2022,07,29,06,35,19.20
2022,07,29,06,36,19.20
2022,07,29,06,37,19.20
2022,07,29,06,38,19.30
2022,07,29,06,39,19.30
2022,07,29,06,40,19.30
2022,07,29,06,41,19.30
2022,07,29,06,42,19.40
2022,07,29,06,43,19.40
2022,07,29,06,44,19.50
2022,07,29,06,45,19.50
2022,07,29,06,46,19.50
2022,07,29,06,47,19.60
2022,07,29,06,48,19.60
2022,07,29,06,49,19.60
2022,07,29,06,50,19.60
2022,07,29,06,51,19.70
2022,07,29,06,52,19.70
2022,07,29,06,53,19.70
2022,07,29,06,54,19.70
2022,07,29,06,55,19.70
2022,07,29,06,56,19.70
2022,07,29,06,57,19.70
2022,07,29,06,58,19.70
2022,07,29,06,59,19.80
2022,07,29,07,00,19.80
2022,07,29,07,01,19.80
2022,07,29,07,02,19.80
2022,07,29,07,03,19.90
2022,07,29,07,04,19.90
2022,07,29,07,05,20.00
2022,07,29,07,06,20.00
2022,07,29,07,07,20.10
2022,07,29,07,08,20.10
2022,07,29,07,09,20.20
2022,07,29,07,10,20.20
2022,07,29,07,11,20.20
2022,07,29,07,12,20.30
2022,07,29,07,13,20.30
2022,07,29,07,14,20.30
2022,07,29,07,15,20.40
2022,07,29,07,16,20.40
2022,07,29,07,17,20.40
2022,07,29,07,18,20.40
2022,07,29,07,19,20.50
2022,07,29,07,20,20.50
2022,07,29,07,21,20.60
2022,07,29,07,22,20.60
2022,07,29,07,23,20.70
2022,07,29,07,24,20.70
2022,07,29,07,25,20.80
2022,07,29,07,26,20.80
2022,07,29,07,27,20.80
2022,07,29,07,28,20.90
2022,07,29,07,29,21.00
2022,07,29,07,30,21.00
2022,07,29,07,31,21.10
2022,07,29,07,32,21.10
2022,07,29,07,33,21.20
2022,07,29,07,34,21.30
2022,07,29,07,35,21.40
2022,07,29,07,36,21.40
2022,07,29,07,37,21.50
2022,07,29,07,38,21.60
2022,07,29,07,39,21.70
2022,07,29,07,40,21.80
2022,07,29,07,41,21.80
2022,07,29,07,42,21.90
2022,07,29,07,43,22.00
2022,07,29,07,44,22.00
2022,07,29,07,45,22.10
2022,07,29,07,46,22.20
2022,07,29,07,47,22.20
2022,07,29,07,48,22.30
2022,07,29,07,49,22.40
2022,07,29,07,50,22.40
2022,07,29,07,51,22.50
2022,07,29,07,52,22.50
2022,07,29,07,53,22.60
2022,07,29,07,54,22.70
2022,07,29,07,55,22.80
2022,07,29,07,56,22.80
2022,07,29,07,57,22.90
2022,07,29,07,58,23.00
2022,07,29,07,59,23.10
2022,07,29,08,00,23.20
2022,07,29,08,01,23.20
2022,07,29,08,02,23.20
2022,07,29,08,03,23.30
2022,07,29,08,04,23.30
2022,07,29,08,05,23.30
2022,07,29,08,06,23.40
2022,07,29,08,07,23.40
2022,07,29,08,08,23.40
2022,07,29,08,09,23.40
2022,07,29,08,10,23.40
2022,07,29,08,11,23.40
2022,07,29,08,12,23.40
2022,07,29,08,13,23.40
2022,07,29,08,14,23.30
2022,07,29,08,15,23.30
2022,07,29,08,16,23.30
2022,07,29,08,17,23.30
2022,07,29,08,18,23.30
2022,07,29,08,19,23.30
2022,07,29,08,20,23.40
2022,07,29,08,21,23.40
2022,07,29,08,22,23.50
2022,07,29,08,23,23.50
2022,07,29,08,24,23.60
2022,07,29,08,25,23.60
2022,07,29,08,26,23.70
2022,07,29,08,27,23.80
2022,07,29,08,28,23.90
2022,07,29,08,29,23.90
2022,07,29,08,30,23.90
2022,07,29,08,31,24.00
2022,07,29,08,32,24.00
2022,07,29,08,33,24.00
2022,07,29,08,34,24.10
2022,07,29,08,35,24.10
2022,07,29,08,36,24.20
2022,07,29,08,37,24.20
2022,07,29,08,38,24.20
2022,07,29,08,39,24.20
2022,07,29,08,40,24.20
2022,07,29,08,41,24.20
2022,07,29,08,42,24.20
2022,07,29,08,43,24.20
2022,07,29,08,44,24.30
2022,07,29,08,45,24.30
2022,07,29,08,46,24.30
2022,07,29,08,47,24.40
2022,07,29,08,48,24.40
2022,07,29,08,49,24.40
2022,07,29,08,50,24.40
2022,07,29,08,51,24.50
2022,07,29,08,52,24.50
2022,07,29,08,53,24.60
2022,07,29,08,54,24.60
2022,07,29,08,55,24.60
2022,07,29,08,56,24.70
2022,07,29,08,57,24.70
2022,07,29,08,58,24.70
2022,07,29,08,59,24.70
2022,07,29,09,00,24.70
2022,07,29,09,01,24.70
2022,07,29,09,02,24.70
2022,07,29,09,03,24.70
2022,07,29,09,04,24.60
2022,07,29,09,05,24.70
2022,07,29,09,06,24.70
2022,07,29,09,07,24.60
2022,07,29,09,08,24.60
2022,07,29,09,09,24.60
2022,07,29,09,10,24.60
2022,07,29,09,11,24.60
2022,07,29,09,12,24.70
2022,07,29,09,13,24.70
2022,07,29,09,14,24.70
2022,07,29,09,15,24.70
2022,07,29,09,16,24.80
2022,07,29,09,17,24.80
2022,07,29,09,18,24.90
2022,07,29,09,19,25.00
2022,07,29,09,20,25.00
2022,07,29,09,21,25.10
2022,07,29,09,22,25.10
2022,07,29,09,23,25.20
2022,07,29,09,24,25.20
2022,07,29,09,25,25.30
2022,07,29,09,26,25.30
2022,07,29,09,27,25.30
2022,07,29,09,28,25.30
2022,07,29,09,29,25.30
2022,07,29,09,30,25.30
2022,07,29,09,31,25.40
2022,07,29,09,32,25.40
2022,07,29,09,33,25.50
2022,07,29,09,34,25.60
2022,07,29,09,35,25.70
2022,07,29,09,36,25.80
2022,07,29,09,37,25.80
2022,07,29,09,38,25.90
2022,07,29,09,39,26.00
2022,07,29,09,40,26.10
2022,07,29,09,41,26.10
2022,07,29,09,42,26.20
2022,07,29,09,43,26.30
2022,07,29,09,44,26.40
2022,07,29,09,45,26.50
2022,07,29,09,46,26.70
2022,07,29,09,47,26.80
2022,07,29,09,48,26.90
2022,07,29,09,49,27.10
2022,07,29,09,50,27.20
2022,07,29,09,51,27.30
2022,07,29,09,52,27.40
2022,07,29,09,53,27.50
2022,07,29,09,54,27.50
2022,07,29,09,55,27.60
2022,07,29,09,56,27.60
2022,07,29,09,57,27.60
2022,07,29,09,58,27.70
2022,07,29,09,59,27.70
2022,07,29,10,00,27.70
2022,07,29,10,01,27.80
2022,07,29,10,02,27.80
2022,07,29,10,03,27.90
2022,07,29,10,04,27.90
2022,07,29,10,05,27.90
2022,07,29,10,06,27.90
2022,07,29,10,07,27.90
2022,07,29,10,08,27.90
2022,07,29,10,09,28.00
2022,07,29,10,10,28.00
2022,07,29,10,11,28.10
2022,07,29,10,12,28.10
2022,07,29,10,13,28.10
2022,07,29,10,14,28.10
2022,07,29,10,15,28.10
2022,07,29,10,16,28.00
2022,07,29,10,17,28.00
2022,07,29,10,18,28.00
2022,07,29,10,19,28.00
2022,07,29,10,20,27.90
2022,07,29,10,21,27.90
2022,07,29,10,22,27.80
2022,07,29,10,23,27.80
2022,07,29,10,24,27.90
2022,07,29,10,25,27.90
2022,07,29,10,26,27.90
2022,07,29,10,27,27.90
2022,07,29,10,28,27.90
2022,07,29,10,29,27.80
2022,07,29,10,30,27.80
2022,07,29,10,31,27.80
2022,07,29,10,32,27.80
2022,07,29,10,33,27.80
2022,07,29,10,34,27.70
2022,07,29,10,35,27.70
2022,07,29,10,36,27.70
2022,07,29,10,37,27.80
2022,07,29,10,38,27.80
2022,07,29,10,39,27.80
2022,07,29,10,40,27.80
2022,07,29,10,41,27.90
2022,07,29,10,42,27.90
2022,07,29,10,43,27.90
2022,07,29,10,44,27.90
2022,07,29,10,45,27.90
2022,07,29,10,46,28.00
2022,07,29,10,47,28.00
2022,07,29,10,48,28.00
2022,07,29,10,49,28.10
2022,07,29,10,50,28.20
2022,07,29,10,51,28.20
2022,07,29,10,52,28.10
2022,07,29,10,53,28.10
2022,07,29,10,54,28.10
2022,07,29,10,55,28.10
2022,07,29,10,56,28.10
2022,07,29,10,57,28.10
2022,07,29,10,58,28.20
2022,07,29,10,59,28.20
2022,07,29,11,00,28.20
2022,07,29,11,01,28.20
2022,07,29,11,02,28.30
2022,07,29,11,03,28.30
2022,07,29,11,04,28.30
2022,07,29,11,05,28.40
2022,07,29,11,06,28.40
2022,07,29,11,07,28.50
2022,07,29,11,08,28.50
2022,07,29,11,09,28.60
2022,07,29,11,10,28.60
2022,07,29,11,11,28.60
2022,07,29,11,12,28.70
2022,07,29,11,13,28.70
2022,07,29,11,14,28.80
2022,07,29,11,15,28.90
2022,07,29,11,16,29.00
2022,07,29,11,17,29.10
2022,07,29,11,18,29.10
2022,07,29,11,19,29.20
2022,07,29,11,20,29.20
2022,07,29,11,21,29.30
2022,07,29,11,22,29.30
2022,07,29,11,23,29.30
2022,07,29,11,24,29.40
2022,07,29,11,25,29.40
2022,07,29,11,26,29.50
2022,07,29,11,27,29.50
2022,07,29,11,28,29.60
2022,07,29,11,29,29.60
2022,07,29,11,30,29.70
2022,07,29,11,31,29.70
2022,07,29,11,32,29.70
2022,07,29,11,33,29.70
2022,07,29,11,34,29.70
2022,07,29,11,35,29.70
2022,07,29,11,36,29.70
2022,07,29,11,37,29.70
2022,07,29,11,38,29.70
2022,07,29,11,39,29.70
2022,07,29,11,40,29.80
2022,07,29,11,41,29.80
2022,07,29,11,42,29.80
2022,07,29,11,43,29.70
2022,07,29,11,44,29.60
2022,07,29,11,45,29.60
2022,07,29,11,46,29.60
2022,07,29,11,47,29.50
2022,07,29,11,48,29.50
2022,07,29,11,49,29.50
2022,07,29,11,50,29.50
2022,07,29,11,51,29.50
2022,07,29,11,52,29.60
2022,07,29,11,53,29.60
2022,07,29,11,54,29.60
2022,07,29,11,55,29.60
2022,07,29,11,56,29.60
2022,07,29,11,57,29.60
2022,07,29,11,58,29.60
2022,07,29,11,59,29.60
2022,07,29,12,00,29.60
2022,07,29,12,01,29.70
2022,07,29,12,02,29.70
2022,07,29,12,03,29.70
2022,07,29,12,04,29.70
2022,07,29,12,05,29.70
2022,07,29,12,06,29.80
2022,07,29,12,07,29.70
2022,07,29,12,08,29.70
2022,07,29,12,09,29.70
2022,07,29,12,10,29.80
2022,07,29,12,11,29.90
2022,07,29,12,12,30.00
2022,07,29,12,13,30.10
2022,07,29,12,14,30.10
2022,07,29,12,15,30.10
2022,07,29,12,16,30.00
2022,07,29,12,17,30.00
2022,07,29,12,18,30.10
2022,07,29,12,19,30.20
2022,07,29,12,20,30.20
2022,07,29,12,21,30.30
2022,07,29,12,22,30.30
2022,07,29,12,23,30.20
2022,07,29,12,24,30.20
2022,07,29,12,25,30.20
2022,07,29,12,26,30.20
2022,07,29,12,27,30.20
2022,07,29,12,28,30.20
2022,07,29,12,29,30.30
2022,07,29,12,30,30.40
2022,07,29,12,31,30.50
2022,07,29,12,32,30.60
2022,07,29,12,33,30.60
2022,07,29,12,34,30.70
2022,07,29,12,35,30.70
2022,07,29,12,36,30.70
2022,07,29,12,37,30.70
2022,07,29,12,38,30.80
2022,07,29,12,39,30.90
2022,07,29,12,40,30.90
2022,07,29,12,41,30.90
2022,07,29,12,42,31.00
2022,07,29,12,43,31.00
2022,07,29,12,44,31.00
2022,07,29,12,45,30.90
2022,07,29,12,46,30.80
2022,07,29,12,47,30.80
2022,07,29,12,48,30.70
2022,07,29,12,49,30.70
2022,07,29,12,50,30.70
2022,07,29,12,51,30.60
2022,07,29,12,52,30.60
2022,07,29,12,53,30.60
2022,07,29,12,54,30.60
2022,07,29,12,55,30.50
2022,07,29,12,56,30.50
2022,07,29,12,57,30.60
2022,07,29,12,58,30.60
2022,07,29,12,59,30.60
2022,07,29,13,00,30.60
2022,07,29,13,01,30.60
2022,07,29,13,02,30.70
2022,07,29,13,03,30.70
2022,07,29,13,04,30.80
2022,07,29,13,05,30.90
2022,07,29,13,06,31.00
2022,07,29,13,07,31.00
2022,07,29,13,08,31.00
2022,07,29,13,09,31.00
2022,07,29,13,10,31.00
2022,07,29,13,11,31.00
2022,07,29,13,12,31.00
2022,07,29,13,13,31.00
2022,07,29,13,14,31.00
2022,07,29,13,15,30.90
2022,07,29,13,16,30.90
2022,07,29,13,17,30.90
2022,07,29,13,18,30.90
2022,07,29,13,19,31.00
2022,07,29,13,20,31.00
2022,07,29,13,21,31.10
2022,07,29,13,22,31.10
2022,07,29,13,23,31.20
2022,07,29,13,24,31.20
2022,07,29,13,25,31.20
2022,07,29,13,26,31.20
2022,07,29,13,27,31.20
2022,07,29,13,28,31.20
2022,07,29,13,29,31.20
2022,07,29,13,30,31.20
2022,07,29,13,31,31.20
2022,07,29,13,32,31.10
2022,07,29,13,33,31.10
2022,07,29,13,34,31.10
2022,07,29,13,35,31.10
2022,07,29,13,36,31.10
2022,07,29,13,37,31.00
2022,07,29,13,38,30.90
2022,07,29,13,39,30.70
2022,07,29,13,40,30.60
2022,07,29,13,41,30.50
2022,07,29,13,42,30.40
2022,07,29,13,43,30.40
2022,07,29,13,44,30.30
2022,07,29,13,45,30.30
2022,07,29,13,46,30.30
2022,07,29,13,47,30.30
2022,07,29,13,48,30.30
2022,07,29,13,49,30.30
2022,07,29,13,50,30.30
2022,07,29,13,51,30.40
2022,07,29,13,52,30.40
2022,07,29,13,53,30.50
2022,07,29,13,54,30.60
2022,07,29,13,55,30.60
2022,07,29,13,56,30.70
2022,07,29,13,57,30.70
2022,07,29,13,58,30.70
2022,07,29,13,59,30.80
2022,07,29,14,00,30.80
2022,07,29,14,01,30.80
2022,07,29,14,02,30.80
2022,07,29,14,03,30.80
2022,07,29,14,04,30.70
2022,07,29,14,05,30.70
2022,07,29,14,06,30.70
2022,07,29,14,07,30.70
2022,07,29,14,08,30.60
2022,07,29,14,09,30.60
2022,07,29,14,10,30.60
2022,07,29,14,11,30.60
2022,07,29,14,12,30.60
2022,07,29,14,13,30.50
2022,07,29,14,14,30.50
2022,07,29,14,15,30.60
2022,07,29,14,16,30.60
2022,07,29,14,17,30.60
2022,07,29,14,18,30.60
2022,07,29,14,19,30.60
2022,07,29,14,20,30.60
2022,07,29,14,21,30.60
2022,07,29,14,22,30.60
2022,07,29,14,23,30.60
2022,07,29,14,24,30.50
2022,07,29,14,25,30.50
2022,07,29,14,26,30.50
2022,07,29,14,27,30.50
2022,07,29,14,28,30.50
2022,07,29,14,29,30.50
2022,07,29,14,30,30.50
2022,07,29,14,31,30.50
2022,07,29,14,32,30.60
2022,07,29,14,33,30.60
2022,07,29,14,34,30.60
2022,07,29,14,35,30.70
2022,07,29,14,36,30.70
2022,07,29,14,37,30.70
2022,07,29,14,38,30.70
2022,07,29,14,39,30.70
2022,07,29,14,40,30.70
2022,07,29,14,41,30.70
2022,07,29,14,42,30.70
2022,07,29,14,43,30.70
2022,07,29,14,44,30.70
2022,07,29,14,45,30.80
2022,07,29,14,46,30.80
2022,07,29,14,47,30.80
2022,07,29,14,48,30.80
2022,07,29,14,49,30.80
2022,07,29,14,50,30.80
2022,07,29,14,51,30.80
2022,07,29,14,52,30.80
2022,07,29,14,53,30.90
2022,07,29,14,54,30.90
2022,07,29,14,55,31.00
2022,07,29,14,56,31.10
2022,07,29,14,57,31.10
2022,07,29,14,58,31.20
2022,07,29,14,59,31.20
2022,07,29,15,00,31.20
2022,07,29,15,01,31.30
2022,07,29,15,02,31.30
2022,07,29,15,03,31.40
2022,07,29,15,04,31.40
2022,07,29,15,05,31.50
2022,07,29,15,06,31.60
2022,07,29,15,07,31.60
2022,07,29,15,08,31.70
2022,07,29,15,09,31.70
2022,07,29,15,10,31.80
2022,07,29,15,11,31.80
2022,07,29,15,12,31.70
2022,07,29,15,13,31.70
2022,07,29,15,14,31.50
2022,07,29,15,15,31.50
2022,07,29,15,16,31.40
2022,07,29,15,17,31.30
2022,07,29,15,18,31.20
2022,07,29,15,19,31.10
2022,07,29,15,20,31.10
2022,07,29,15,21,31.10
2022,07,29,15,22,31.10
2022,07,29,15,23,31.20
2022,07,29,15,24,31.20
2022,07,29,15,25,31.20
2022,07,29,15,26,31.20
2022,07,29,15,27,31.20
2022,07,29,15,28,31.20
2022,07,29,15,29,31.20
2022,07,29,15,30,31.20
2022,07,29,15,31,31.20
2022,07,29,15,32,31.20
2022,07,29,15,33,31.20
2022,07,29,15,34,31.20
2022,07,29,15,35,31.20
2022,07,29,15,36,31.20
2022,07,29,15,37,31.30
2022,07,29,15,38,31.30
2022,07,29,15,39,31.40
2022,07,29,15,40,31.40
2022,07,29,15,41,31.40
2022,07,29,15,42,31.40
2022,07,29,15,43,31.40
2022,07,29,15,44,31.40
2022,07,29,15,45,31.40
2022,07,29,15,46,31.50
2022,07,29,15,47,31.50
2022,07,29,15,48,31.50
2022,07,29,15,49,31.50
2022,07,29,15,50,31.50
2022,07,29,15,51,31.60
2022,07,29,15,52,31.60
2022,07,29,15,53,31.60
2022,07,29,15,54,31.70
2022,07,29,15,55,31.80
2022,07,29,15,56,31.80
2022,07,29,15,57,31.80
2022,07,29,15,58,31.80
2022,07,29,15,59,31.80
2022,07,29,16,00,31.90
2022,07,29,16,01,32.00
2022,07,29,16,02,32.00
2022,07,29,16,03,32.10
2022,07,29,16,04,32.10
2022,07,29,16,05,32.10
2022,07,29,16,06,32.20
2022,07,29,16,07,32.20
2022,07,29,16,08,32.30
2022,07,29,16,09,32.30
2022,07,29,16,10,32.30
2022,07,29,16,11,32.30
2022,07,29,16,12,32.30
2022,07,29,16,13,32.40
2022,07,29,16,14,32.40
2022,07,29,16,15,32.40
2022,07,29,16,16,32.40
2022,07,29,16,17,32.40
2022,07,29,16,18,32.30
2022,07,29,16,19,32.30
2022,07,29,16,20,32.30
2022,07,29,16,21,32.20
2022,07,29,16,22,32.20
2022,07,29,16,23,32.20
2022,07,29,16,24,32.30
2022,07,29,16,25,32.30
2022,07,29,16,26,32.30
2022,07,29,16,27,32.30
2022,07,29,16,28,32.40
2022,07,29,16,29,32.40
2022,07,29,16,30,32.40
2022,07,29,16,31,32.50
2022,07,29,16,32,32.60
2022,07,29,16,33,32.70
2022,07,29,16,34,32.80
2022,07,29,16,35,32.90
2022,07,29,16,36,32.90
2022,07,29,16,37,32.90
2022,07,29,16,38,32.90
2022,07,29,16,39,32.90
2022,07,29,16,40,32.80
2022,07,29,16,41,32.80
2022,07,29,16,42,32.80
2022,07,29,16,43,32.80
2022,07,29,16,44,32.80
2022,07,29,16,45,32.80
2022,07,29,16,46,32.80
2022,07,29,16,47,32.90
2022,07,29,16,48,32.90
2022,07,29,16,49,33.00
2022,07,29,16,50,33.00
2022,07,29,16,51,33.10
2022,07,29,16,52,33.20
2022,07,29,16,53,33.20
2022,07,29,16,54,33.30
2022,07,29,16,55,33.30
2022,07,29,16,56,33.20
2022,07,29,16,57,33.20
2022,07,29,16,58,33.20
2022,07,29,16,59,33.10
2022,07,29,17,00,33.00
2022,07,29,17,01,33.00
2022,07,29,17,02,32.90
2022,07,29,17,03,32.90
2022,07,29,17,04,32.90
2022,07,29,17,05,32.90
2022,07,29,17,06,33.00
2022,07,29,17,07,33.00
2022,07,29,17,08,33.00
2022,07,29,17,09,32.90
2022,07,29,17,10,32.90
2022,07,29,17,11,32.90
2022,07,29,17,12,32.80
2022,07,29,17,13,32.80
2022,07,29,17,14,32.80
2022,07,29,17,15,32.80
2022,07,29,17,16,32.80
2022,07,29,17,17,32.70
2022,07,29,17,18,32.70
2022,07,29,17,19,32.60